Time,TemperatureF,DewpointF,PressureIn,WindDirection,WindDirectionDegrees,WindSpeedMPH,WindSpeedGustMPH,Humidity,HourlyPrecipIn,Conditions,Clouds,dailyrainin,SoftwareType,DateUTC
2013-03-01 00:13:00,25.1,21.0,30.11,North,-999,9.6,-999.0,84,-99.99,,,-99.99,Acu-Link.com,2013-03-01 06:13:00,
2013-03-01 00:28:00,24.9,20.5,30.11,North,-999,3.2,-999.0,83,-99.99,,,-99.99,Acu-Link.com,2013-03-01 06:28:00,
2013-03-01 00:43:00,24.6,19.9,30.11,North,-999,9.6,-999.0,82,-99.99,,,-99.99,Acu-Link.com,2013-03-01 06:43:00,
2013-03-01 00:58:00,24.5,19.5,30.11,North,-999,3.2,-999.0,81,-99.99,,,-99.99,Acu-Link.com,2013-03-01 06:58:00,
2013-03-01 01:14:00,24.5,19.8,30.12,North,-999,3.2,-999.0,82,-99.99,,,-99.99,Acu-Link.com,2013-03-01 07:14:00,
2013-03-01 01:29:00,24.3,19.6,30.13,North,-999,6.4,-999.0,82,-99.99,,,-99.99,Acu-Link.com,2013-03-01 07:29:00,
2013-03-01 01:44:00,24.3,19.6,30.12,North,-999,8.0,-999.0,82,-99.99,,,-99.99,Acu-Link.com,2013-03-01 07:44:00,
2013-03-01 01:59:00,24.3,19.6,30.12,North,-999,11.2,-999.0,82,-99.99,,,-99.99,Acu-Link.com,2013-03-01 07:59:00,
2013-03-01 02:14:00,24.3,19.9,30.12,North,-999,4.8,-999.0,83,-99.99,,,-99.99,Acu-Link.com,2013-03-01 08:14:00,
2013-03-01 02:29:00,24.3,19.9,30.12,North,-999,4.8,-999.0,83,-99.99,,,-99.99,Acu-Link.com,2013-03-01 08:29:00,
2013-03-01 02:45:00,24.2,19.8,30.12,North,-999,4.8,-999.0,83,-99.99,,,-99.99,Acu-Link.com,2013-03-01 08:45:00,
2013-03-01 03:01:00,24.2,19.8,30.12,North,-999,6.4,-999.0,83,-99.99,,,-99.99,Acu-Link.com,2013-03-01 09:01:00,
2013-03-01 03:20:00,24.2,20.1,30.11,North,-999,6.4,-999.0,84,-99.99,,,-99.99,Acu-Link.com,2013-03-01 09:20:00,
2013-03-01 03:35:00,24.2,19.8,30.12,North,-999,6.4,-999.0,83,-99.99,,,-99.99,Acu-Link.com,2013-03-01 09:35:00,
2013-03-01 03:50:00,24.2,20.1,30.12,North,-999,6.4,-999.0,84,-99.99,,,-99.99,Acu-Link.com,2013-03-01 09:50:00,
2013-03-01 04:05:00,24.1,20.0,30.12,North,-999,1.6,-999.0,84,-99.99,,,-99.99,Acu-Link.com,2013-03-01 10:05:00,
2013-03-01 04:21:00,24.0,19.9,30.12,North,-999,1.6,-999.0,84,-99.99,,,-99.99,Acu-Link.com,2013-03-01 10:21:00,
2013-03-01 04:36:00,24.1,20.3,30.13,North,-999,4.8,-999.0,85,-99.99,,,-99.99,Acu-Link.com,2013-03-01 10:36:00,
2013-03-01 04:51:00,23.6,18.9,30.13,North,-999,1.6,-999.0,82,-99.99,,,-99.99,Acu-Link.com,2013-03-01 10:51:00,
2013-03-01 05:06:00,23.1,18.2,30.13,North,-999,4.8,-999.0,81,-99.99,,,-99.99,Acu-Link.com,2013-03-01 11:06:00,
2013-03-01 05:22:00,22.9,17.7,30.14,North,-999,4.8,-999.0,80,-99.99,,,-99.99,Acu-Link.com,2013-03-01 11:22:00,
2013-03-01 05:37:00,22.9,17.7,30.14,North,-999,3.2,-999.0,80,-99.99,,,-99.99,Acu-Link.com,2013-03-01 11:37:00,
2013-03-01 05:52:00,22.8,17.6,30.15,North,-999,4.8,-999.0,80,-99.99,,,-99.99,Acu-Link.com,2013-03-01 11:52:00,
2013-03-01 06:07:00,22.9,17.4,30.15,North,-999,4.8,-999.0,79,-99.99,,,-99.99,Acu-Link.com,2013-03-01 12:07:00,
2013-03-01 06:23:00,22.8,17.3,30.15,North,-999,3.2,-999.0,79,-99.99,,,-99.99,Acu-Link.com,2013-03-01 12:23:00,
2013-03-01 06:38:00,22.7,17.5,30.15,North,-999,1.6,-999.0,80,-99.99,,,-99.99,Acu-Link.com,2013-03-01 12:38:00,
2013-03-01 06:54:00,22.5,16.7,30.15,North,-999,6.4,-999.0,78,-99.99,,,-99.99,Acu-Link.com,2013-03-01 12:54:00,
2013-03-01 07:09:00,22.5,17.3,30.16,North,-999,4.8,-999.0,80,-99.99,,,-99.99,Acu-Link.com,2013-03-01 13:09:00,
2013-03-01 07:24:00,22.5,17.0,30.16,North,-999,4.8,-999.0,79,-99.99,,,-99.99,Acu-Link.com,2013-03-01 13:24:00,
2013-03-01 07:40:00,22.6,17.4,30.16,North,-999,4.8,-999.0,80,-99.99,,,-99.99,Acu-Link.com,2013-03-01 13:40:00,
2013-03-01 07:55:00,22.9,17.7,30.16,North,-999,4.8,-999.0,80,-99.99,,,-99.99,Acu-Link.com,2013-03-01 13:55:00,
2013-03-01 08:10:00,23.4,17.9,30.17,North,-999,6.4,-999.0,79,-99.99,,,-99.99,Acu-Link.com,2013-03-01 14:10:00,
2013-03-01 08:25:00,23.9,18.1,30.18,North,-999,3.2,-999.0,78,-99.99,,,-99.99,Acu-Link.com,2013-03-01 14:25:00,
2013-03-01 08:41:00,24.3,18.1,30.17,North,-999,4.8,-999.0,77,-99.99,,,-99.99,Acu-Link.com,2013-03-01 14:41:00,
2013-03-01 08:56:00,24.9,18.4,30.18,North,-999,4.8,-999.0,76,-99.99,,,-99.99,Acu-Link.com,2013-03-01 14:56:00,
2013-03-01 09:11:00,25.0,18.2,30.18,North,-999,3.2,-999.0,75,-99.99,,,-99.99,Acu-Link.com,2013-03-01 15:11:00,
2013-03-01 09:27:00,24.8,18.3,30.18,North,-999,4.8,-999.0,76,-99.99,,,-99.99,Acu-Link.com,2013-03-01 15:27:00,
2013-03-01 09:42:00,24.8,18.3,30.19,North,-999,6.4,-999.0,76,-99.99,,,-99.99,Acu-Link.com,2013-03-01 15:42:00,
2013-03-01 09:57:00,25.0,18.5,30.19,North,-999,4.8,-999.0,76,-99.99,,,-99.99,Acu-Link.com,2013-03-01 15:57:00,
2013-03-01 10:13:00,24.9,18.4,30.19,North,-999,3.2,-999.0,76,-99.99,,,-99.99,Acu-Link.com,2013-03-01 16:13:00,
2013-03-01 10:28:00,24.9,18.7,30.19,North,-999,6.4,-999.0,77,-99.99,,,-99.99,Acu-Link.com,2013-03-01 16:28:00,
2013-03-01 10:43:00,25.9,19.4,30.18,North,-999,4.8,-999.0,76,-99.99,,,-99.99,Acu-Link.com,2013-03-01 16:43:00,
2013-03-01 10:58:00,27.0,19.5,30.18,North,-999,4.8,-999.0,73,-99.99,,,-99.99,Acu-Link.com,2013-03-01 16:58:00,
2013-03-01 11:13:00,27.0,19.5,30.18,North,-999,6.4,-999.0,73,-99.99,,,-99.99,Acu-Link.com,2013-03-01 17:13:00,
2013-03-01 11:29:00,27.1,19.0,30.18,North,-999,6.4,-999.0,71,-99.99,,,-99.99,Acu-Link.com,2013-03-01 17:29:00,
2013-03-01 11:44:00,27.1,18.3,30.18,North,-999,6.4,-999.0,69,-99.99,,,-99.99,Acu-Link.com,2013-03-01 17:44:00,
2013-03-01 11:59:00,28.7,18.4,30.18,North,-999,6.4,-999.0,65,-99.99,,,-99.99,Acu-Link.com,2013-03-01 17:59:00,
2013-03-01 12:15:00,28.3,19.5,30.18,North,-999,3.2,-999.0,69,-99.99,,,-99.99,Acu-Link.com,2013-03-01 18:15:00,
2013-03-01 12:30:00,28.5,17.9,30.18,North,-999,12.8,-999.0,64,-99.99,,,-99.99,Acu-Link.com,2013-03-01 18:30:00,
2013-03-01 12:45:00,29.2,18.6,30.18,North,-999,1.6,-999.0,64,-99.99,,,-99.99,Acu-Link.com,2013-03-01 18:45:00,
2013-03-01 13:01:00,29.0,18.4,30.18,North,-999,12.8,-999.0,64,-99.99,,,-99.99,Acu-Link.com,2013-03-01 19:01:00,
2013-03-01 13:16:00,31.2,19.0,30.17,North,-999,8.0,-999.0,60,-99.99,,,-99.99,Acu-Link.com,2013-03-01 19:16:00,
2013-03-01 13:31:00,30.1,18.3,30.17,North,-999,14.5,-999.0,61,-99.99,,,-99.99,Acu-Link.com,2013-03-01 19:31:00,
2013-03-01 13:47:00,30.0,18.2,30.17,North,-999,8.0,-999.0,61,-99.99,,,-99.99,Acu-Link.com,2013-03-01 19:47:00,
2013-03-01 14:02:00,32.7,20.0,30.17,North,-999,4.8,-999.0,59,-99.99,,,-99.99,Acu-Link.com,2013-03-01 20:02:00,
2013-03-01 14:17:00,31.0,19.2,30.17,North,-999,8.0,-999.0,61,-99.99,,,-99.99,Acu-Link.com,2013-03-01 20:17:00,
2013-03-01 14:33:00,32.3,20.4,30.17,North,-999,4.8,-999.0,61,-99.99,,,-99.99,Acu-Link.com,2013-03-01 20:33:00,
2013-03-01 14:48:00,30.2,18.0,30.17,North,-999,9.6,-999.0,60,-99.99,,,-99.99,Acu-Link.com,2013-03-01 20:48:00,
2013-03-01 15:03:00,33.7,20.5,30.16,North,-999,6.4,-999.0,58,-99.99,,,-99.99,Acu-Link.com,2013-03-01 21:03:00,
2013-03-01 15:19:00,31.1,20.4,30.17,North,-999,4.8,-999.0,64,-99.99,,,-99.99,Acu-Link.com,2013-03-01 21:19:00,
2013-03-01 15:34:00,31.5,20.0,30.17,North,-999,6.4,-999.0,62,-99.99,,,-99.99,Acu-Link.com,2013-03-01 21:34:00,
2013-03-01 15:49:00,31.6,19.3,30.17,North,-999,11.2,-999.0,60,-99.99,,,-99.99,Acu-Link.com,2013-03-01 21:49:00,
2013-03-01 16:04:00,29.8,18.8,30.16,North,-999,11.2,-999.0,63,-99.99,,,-99.99,Acu-Link.com,2013-03-01 22:04:00,
2013-03-01 16:20:00,31.6,19.3,30.16,North,-999,17.7,-999.0,60,-99.99,,,-99.99,Acu-Link.com,2013-03-01 22:20:00,
2013-03-01 16:35:00,29.7,19.0,30.17,North,-999,20.9,-999.0,64,-99.99,,,-99.99,Acu-Link.com,2013-03-01 22:35:00,
2013-03-01 16:50:00,28.7,18.8,30.17,North,-999,11.2,-999.0,66,-99.99,,,-99.99,Acu-Link.com,2013-03-01 22:50:00,
2013-03-01 17:06:00,28.3,18.4,30.18,North,-999,14.5,-999.0,66,-99.99,,,-99.99,Acu-Link.com,2013-03-01 23:06:00,
2013-03-01 17:21:00,27.6,19.1,30.18,North,-999,11.2,-999.0,70,-99.99,,,-99.99,Acu-Link.com,2013-03-01 23:21:00,
2013-03-01 17:36:00,27.3,19.5,30.19,North,-999,8.0,-999.0,72,-99.99,,,-99.99,Acu-Link.com,2013-03-01 23:36:00,
2013-03-01 17:51:00,27.0,18.9,30.20,North,-999,12.8,-999.0,71,-99.99,,,-99.99,Acu-Link.com,2013-03-01 23:51:00,
2013-03-01 18:07:00,26.5,18.7,30.21,North,-999,11.2,-999.0,72,-99.99,,,-99.99,Acu-Link.com,2013-03-02 00:07:00,
2013-03-01 18:22:00,26.1,18.3,30.21,North,-999,9.6,-999.0,72,-99.99,,,-99.99,Acu-Link.com,2013-03-02 00:22:00,
2013-03-01 18:37:00,25.9,18.5,30.21,North,-999,8.0,-999.0,73,-99.99,,,-99.99,Acu-Link.com,2013-03-02 00:37:00,
2013-03-01 18:52:00,25.4,18.0,30.21,North,-999,6.4,-999.0,73,-99.99,,,-99.99,Acu-Link.com,2013-03-02 00:52:00,
2013-03-01 19:08:00,25.2,18.1,30.22,North,-999,8.0,-999.0,74,-99.99,,,-99.99,Acu-Link.com,2013-03-02 01:08:00,
2013-03-01 19:23:00,25.2,18.4,30.22,North,-999,3.2,-999.0,75,-99.99,,,-99.99,Acu-Link.com,2013-03-02 01:23:00,
2013-03-01 19:39:00,25.0,18.5,30.22,North,-999,6.4,-999.0,76,-99.99,,,-99.99,Acu-Link.com,2013-03-02 01:39:00,
2013-03-01 19:54:00,24.8,18.6,30.22,North,-999,8.0,-999.0,77,-99.99,,,-99.99,Acu-Link.com,2013-03-02 01:54:00,
2013-03-01 20:09:00,24.6,18.1,30.21,North,-999,6.4,-999.0,76,-99.99,,,-99.99,Acu-Link.com,2013-03-02 02:09:00,
2013-03-01 20:25:00,24.2,18.1,30.22,North,-999,6.4,-999.0,77,-99.99,,,-99.99,Acu-Link.com,2013-03-02 02:25:00,
2013-03-01 20:40:00,24.0,18.2,30.22,North,-999,4.8,-999.0,78,-99.99,,,-99.99,Acu-Link.com,2013-03-02 02:40:00,
2013-03-01 20:55:00,23.9,18.1,30.22,North,-999,4.8,-999.0,78,-99.99,,,-99.99,Acu-Link.com,2013-03-02 02:55:00,
2013-03-01 21:10:00,23.8,18.3,30.23,North,-999,4.8,-999.0,79,-99.99,,,-99.99,Acu-Link.com,2013-03-02 03:10:00,
2013-03-01 21:26:00,23.8,18.0,30.23,North,-999,1.6,-999.0,78,-99.99,,,-99.99,Acu-Link.com,2013-03-02 03:26:00,
2013-03-01 21:41:00,23.4,18.2,30.23,North,-999,4.8,-999.0,80,-99.99,,,-99.99,Acu-Link.com,2013-03-02 03:41:00,
2013-03-01 21:56:00,23.0,17.8,30.23,North,-999,4.8,-999.0,80,-99.99,,,-99.99,Acu-Link.com,2013-03-02 03:56:00,
2013-03-01 22:12:00,21.9,17.0,30.23,North,-999,3.2,-999.0,81,-99.99,,,-99.99,Acu-Link.com,2013-03-02 04:12:00,
2013-03-01 22:27:00,20.8,16.2,30.23,North,-999,3.2,-999.0,82,-99.99,,,-99.99,Acu-Link.com,2013-03-02 04:27:00,
2013-03-01 22:42:00,19.8,16.0,30.23,North,-999,1.6,-999.0,85,-99.99,,,-99.99,Acu-Link.com,2013-03-02 04:42:00,
2013-03-01 22:57:00,19.0,15.2,30.23,North,-999,1.6,-999.0,85,-99.99,,,-99.99,Acu-Link.com,2013-03-02 04:57:00,
2013-03-01 23:13:00,17.7,14.2,30.23,North,-999,0.0,-999.0,86,-99.99,,,-99.99,Acu-Link.com,2013-03-02 05:13:00,
2013-03-01 23:28:00,16.2,13.0,30.22,North,-999,0.0,-999.0,87,-99.99,,,-99.99,Acu-Link.com,2013-03-02 05:28:00,
2013-03-01 23:43:00,15.9,13.2,30.22,North,-999,0.0,-999.0,89,-99.99,,,-99.99,Acu-Link.com,2013-03-02 05:43:00,
2013-03-01 23:58:00,14.3,11.4,30.22,North,-999,0.0,-999.0,88,-99.99,,,-99.99,Acu-Link.com,2013-03-02 05:58:00,